Tracking 18980 objects as of 18-Feb-2018
HD Live streaming from Space Station
objects crossing your sky now

TITAN 3 R/B(2)

Track TITAN 3 R/B(2) now!


NORAD ID: 20669
Int'l Code: 1990-056C
Perigee: 294.5 km
Apogee: 33,002.1 km
Inclination: 24.5 °
Period: 579.3 minutes
Semi major axis: 23019 km
RCS: 6.947 m2 (large)
Launch date: June 23, 1990
Source: United States (US)
Launch site: AIR FORCE EASTERN TEST RANGE (AFETR)

Note: This is a ROCKET BODY
aabbcc
Your satellite tracking list
Your tracking list is empty




NASA's NSSDC Master Catalog

Two Line Element Set (TLE):
1 20669U 90056C   18047.89190475 +.00000000 +00000-0 +19645-3 0  9994
2 20669 024.4854 345.2757 7104368 199.0616 107.2949 02.48579102233497
Source of the keplerian elements: AFSPC